Starlink 36062

operational
NORAD ID: 66794 Int'l Des: 2025-278 Owner: SPXS Country: US Constellation: starlink
LEOCIRCULAR

关于 Starlink 36062

正在加载描述...

实时位置

正在加载3D地球...

即将过境

高度历史

Altitude vs Time

uPlot chart will show altitude changes over time

两行轨道根数

1 66794U 25278D 25347.04953291 .00090856 00000-0 34305-3 0 9996
2 66794 42.9970 250.2156 0005352 311.2550 48.7862 15.86697722 1883
Epoch: Dec 13, 2025 • Age: 24 hours

当前状态

高度 313.7 km
速度 7.72 km/s
星下点 -25.15°S, 113.05°E
发射日期 Dec 1, 2025
运行时间 12 days
类型 internet

技术详情

分类 Payload
质量 575.00 kg
干质量 530.00 kg
总质量 575.00 kg
长度 0.30 m
直径 4.10 m
跨度 29.00 m
形状 Box + pan
制造商 SPXS
平台类型 Starlink V2MO
阶段状态 In Orbit
所有者/国家 SPXS/US

大型星座

Loading constellations...